[[{"header":{"parameterUnit":"m.s-1","parameterCategory":2,"la1":30.2991,"la2":30.254,"lo1":-89.0895,"lo2":-89.0444,"dy":0.0017,"dx":0.0017,"nx":28,"ny":28,"refTime":"2025-03-07T09:00:00:Z","depth":"0","parameterNumber":2,"parameterNumberName":"U-component_of_CURRENTS"},"data":[0,0,0,0,0,0,0,0,0,0,0,0,0,0,0,0,0,0,0,0,0,0,0,0,0,0,0,0,0,0,0,0,0,0,0,0,0,0,0,0,0,0,0,0,0,0,0,0,0,0,0,0,0,0,0,0,0,0,0.3334,0.3334,0,0.3323,0.3323,0.3323,0.3304,0.3304,0.3303,0.3303,0.3353,0.3355,0.3357,0,0,0,0,0,0,0,0,0,0,0,0,0,0.3465,0.3462,0.3334,0.3334,0.3334,0.3323,0.3323,0.3323,0.3304,0.3304,0.3303,0.3303,0.3353,0.3355,0.3357,0,0,0,0,0,0,0,0,0,0,0,0,0,0.3428,0.3461,0.3334,0.3322,0.3321,0.3323,0.3323,0.3323,0.3305,0.3304,0.3303,0.3303,0.3352,0.3355,0.3357,0.3387,0,0,0.3365,0.3367,0,0,0,0,0,0,0,0,0.343,0.3423,0.3324,0.3323,0.3322,0.3313,0.3387,0.3347,0.3305,0.3312,0.3303,0.3302,0.3345,0.3348,0.3349,0.339,0.3392,0.3366,0.3367,0.3368,0.3369,0,0,0,0,0,0,0,0.3432,0.3424,0.3331,0.3324,0.3322,0.336,0.3353,0.338,0.3335,0.3312,0.331,0.3307,0.3345,0.3346,0.335,0.3393,0.3366,0.3368,0.337,0.3371,0.3505,0.3507,0,0,0,0,0,0,0.3424,0.3425,0.3331,0.3331,0.3373,0.3358,0.335,0.3318,0.3333,0.3334,0.3307,0.3306,0.3342,0.3347,0.3352,0.3455,0.3368,0.3371,0.3372,0.3503,0.3505,0.3508,0,0,0,0,0,0,0.3427,0.3415,0.3332,0.3379,0.3371,0.3355,0.332,0.3318,0.3323,0.3329,0.3331,0.3315,0.3342,0.3348,0.3391,0.3454,0.3372,0.3374,0.3501,0.3504,0.3507,0.3619,0,0,0,0,0,0,0.343,0.3415,0.3413,0.3377,0.3368,0.3354,0.332,0.3318,0.3321,0.3319,0.3337,0.334,0.3342,0.3387,0.3394,0.3456,0.3377,0.3498,0.3502,0.3506,0.3612,0.3625,0.3636,0,0,0,0,0,0.3434,0.3444,0.3412,0.3403,0.3356,0.3355,0.3356,0.3344,0.3322,0.3343,0.3348,0.334,0.3416,0.3391,0.3398,0.3463,0.3496,0.3501,0.3505,0.3607,0.3623,0.3636,0,0,0,0,0,0,0.3508,0.3441,0.3407,0.3394,0.338,0.3352,0.338,0.3352,0.3369,0.3373,0.3364,0.337,0.3434,0.3426,0.3399,0.351,0.3456,0.3462,0.3531,0.3545,0.3557,0.359,0.3379,0,0,0,0,0,0.3517,0.3503,0.3446,0.3445,0.3437,0.3404,0.3408,0.339,0.3389,0.3394,0.3396,0.3415,0.3458,0.3481,0.3508,0.3567,0.3613,0.3612,0.3624,0.3634,0.3665,0.3794,0.3822,0.3522,0.3522,0.3522,0,0,0.3545,0.351,0.3502,0.3461,0.345,0.3467,0.3407,0.3418,0.345,0.3401,0.3457,0.3457,0.3481,0.3552,0.3581,0.3555,0.3742,0.364,0.3649,0.3674,0.3802,0.3832,0.3858,0.3525,0.3525,0.3524,0,0,0.3602,0.3563,0.3567,0.3563,0.3543,0.3532,0.3534,0.3503,0.3513,0.3543,0.3535,0.3575,0.3605,0.3656,0.3682,0.3776,0.3799,0.377,0.3865,0.399,0.4017,0.4041,0.4137,0.4169,0.3778,0.3778,0.3779,0,0.364,0.3617,0.358,0.3593,0.3603,0.3563,0.3586,0.3608,0.3598,0.3623,0.3578,0.366,0.367,0.3796,0.3822,0.3811,0.3867,0.3811,0.401,0.4035,0.4058,0.415,0.4184,0.3784,0.3784,0.3783,0.3783,0,0.3688,0.3684,0.3702,0.3695,0.3716,0.3733,0.3739,0.377,0.3756,0.3759,0.3842,0.385,0.3902,0.3911,0.3896,0.4063,0.4046,0.4012,0.3981,0.4096,0.4184,0.4217,0.3793,0.3791,0.3789,0.3788,0,0,0.3712,0.3724,0.3726,0.3736,0.3761,0.3773,0.3865,0.3912,0.3976,0.3977,0.4068,0.4122,0.4105,0.4135,0.4129,0.4224,0.4422,0.4188,0.4192,0.4296,0.4696,0.4586,0.4611,0.4426,0.4433,0.4438,0.4693,0,0.3748,0.3777,0.3788,0.3849,0.3861,0.3891,0.3978,0.4035,0.4075,0.4165,0.4203,0.4278,0.4203,0.4232,0.4326,0.4403,0.4515,0.4356,0.4559,0.4565,0.4465,0.4648,0.4339,0.4533,0.4725,0.4731,0.4735,0,0.3767,0.3785,0.3828,0.3895,0.3908,0.3958,0.4077,0.4151,0.4292,0.4328,0.4416,0.444,0.4591,0.4497,0.4722,0.4623,0.4682,0.4725,0.4735,0.4622,0.4518,0.4449,0.4585,0.4429,0.4786,0.4782,0.4778,0,0.376,0.381,0.384,0.386,0.3944,0.3992,0.4054,0.4185,0.4287,0.4443,0.4533,0.4669,0.4767,0.4872,0.494,0.486,0.5185,0.5083,0.5047,0.5038,0.4811,0.4771,0.4831,0.5277,0.5276,0.5275,0.5275,0,0.3769,0.3793,0.3831,0.385,0.3942,0.3986,0.4121,0.4211,0.4378,0.4535,0.461,0.4769,0.487,0.5038,0.5065,0.5178,0.5298,0.5125,0.5126,0.4836,0.4798,0.4674,0.4625,0.5285,0.5283,0.5281,0.5279,0,0.3754,0.3767,0.3831,0.3909,0.3937,0.401,0.4172,0.4286,0.4416,0.464,0.4705,0.4919,0.5115,0.5205,0.5406,0.5343,0.5288,0.5453,0.5089,0.5041,0.4776,0.4744,0.4729,0.4599,0.5451,0.545,0.5449,0,0.374,0.3757,0.3874,0.394,0.3976,0.4078,0.4176,0.4307,0.4442,0.4734,0.4861,0.5099,0.5261,0.5492,0.5427,0.5482,0.5319,0.5214,0.4991,0.4781,0.475,0.4591,0.447,0.4742,0.4735,0.473,0.4726,0,0.3744,0.3793,0.3866,0.4002,0.4099,0.4207,0.4334,0.4429,0.4615,0.4779,0.5019,0.5161,0.5341,0.524,0.5271,0.5249,0.4912,0.5106,0.4999,0.4317,0.4043,0.3906,0.4549,0.4679,0.4684,0.4687,0.469,0.4692,0.3773,0.3845,0.3954,0.4081,0.4194,0.4286,0.4308,0.4452,0.4605,0.4741,0.4998,0.5048,0.5001,0.4976,0.4951,0.4591,0.4658,0.4338,0.436,0.4253,0.3984,0.4521,0.4571,0.4574,0.4578,0.4581,0.4583,0,0.381,0.3889,0.4018,0.4143,0.4224,0.4281,0.4381,0.4341,0.4411,0.4576,0.4699,0.4554,0.4433,0.4339,0.4026,0.3826,0.366,0.371,0.3397,0.335,0.3917,0.3734,0.3467,0.3467,0.3468,0.3468,0.3468,0.3468,0.3836,0.395,0.4011,0.4119,0.4176,0.4143,0.4136,0.4094,0.4117,0.4006,0.3865,0.3878,0.3834,0.369,0.3385,0.3285,0.3048,0.2881,0.2998,0.3348,0.3405,0.346,0.3275,0.2917,0.2917,0.2183,0.2178,0.2173]},{"header":{"parameterUnit":"m.s-1","parameterCategory":2,"la1":30.2991,"la2":30.254,"lo1":-89.0895,"lo2":-89.0444,"dy":0.0017,"dx":0.0017,"nx":28,"ny":28,"refTime":"2025-03-07T09:00:00:Z","depth":"0","parameterNumber":3,"parameterNumberName":"V-component_of_CURRENTS"},"data":[0,0,0,0,0,0,0,0,0,0,0,0,0,0,0,0,0,0,0,0,0,0,0,0,0,0,0,0,0,0,0,0,0,0,0,0,0,0,0,0,0,0,0,0,0,0,0,0,0,0,0,0,0,0,0,0,0,0,0.0103,0.0103,0,0.0048,0.0047,0.0047,-0.0005,-0.0006,-0.0006,-0.0006,-0.0088,-0.009,-0.0092,0,0,0,0,0,0,0,0,0,0,0,0,0,0.0113,0.0113,0.0103,0.0103,0.0102,0.0048,0.0047,0.0046,-0.0005,-0.0006,-0.0006,-0.0007,-0.0088,-0.009,-0.0092,0,0,0,0,0,0,0,0,0,0,0,0,0,0.0085,0.0113,0.0103,0.0072,0.0069,0.0049,0.0047,0.0046,-0.0005,-0.0006,-0.0006,-0.0007,-0.0087,-0.009,-0.0092,-0.0098,0,0,-0.0101,-0.0102,0,0,0,0,0,0,0,0,0.0087,0.0085,0.0077,0.0075,0.0071,0.003,0.0021,-0.0002,-0.0005,0.002,-0.0006,-0.0007,-0.0049,-0.0054,-0.0068,-0.0102,-0.0105,-0.0101,-0.0103,-0.0104,-0.0104,0,0,0,0,0,0,0,0.0089,0.0087,0.0078,0.0077,0.0073,0.0044,0.004,0.0016,-0.0013,0.0018,0.0015,0.0014,-0.0051,-0.0065,-0.007,-0.0107,-0.0101,-0.0103,-0.0105,-0.0106,-0.014,-0.0139,0,0,0,0,0,0,0.0105,0.0089,0.008,0.0077,0.0081,0.0045,0.004,0.0042,-0.0013,-0.002,0.0014,0.0011,-0.006,-0.0067,-0.0073,-0.0059,-0.0104,-0.0106,-0.0108,-0.0141,-0.014,-0.0139,0,0,0,0,0,0,0.0106,0.0105,0.0082,0.0084,0.0079,0.0046,0.0048,0.0041,0.0031,-0.0015,-0.0024,0.0012,-0.0061,-0.0069,-0.0087,-0.0063,-0.0107,-0.011,-0.0142,-0.014,-0.0139,-0.0046,0,0,0,0,0,0,0.0106,0.0106,0.0109,0.0085,0.008,0.0082,0.0049,0.004,0.0032,0.0028,-0.0019,-0.0028,-0.0062,-0.0083,-0.009,-0.0068,-0.0112,-0.0143,-0.0141,-0.014,-0.005,-0.0041,-0.0034,0,0,0,0,0,0.0107,0.012,0.0109,0.0108,0.0087,0.0084,0.0078,0.005,0.0033,0.0037,0.0003,-0.0026,-0.0079,-0.0084,-0.0093,-0.0071,-0.0143,-0.0141,-0.014,-0.0053,-0.0043,-0.0035,0,0,0,0,0,0,0.0123,0.0116,0.0103,0.0112,0.0104,0.0076,0.0075,0.0059,0.0034,0.0027,-0.0019,-0.0029,-0.0038,-0.0067,-0.0072,-0.0078,-0.0115,-0.0115,-0.0046,-0.0037,-0.0029,-0.0002,-0.0114,0,0,0,0,0,0.013,0.0139,0.0125,0.0132,0.013,0.0104,0.0098,0.0082,0.006,0.0048,0.0018,-0.0015,-0.0038,-0.0047,-0.0077,-0.0076,-0.0077,-0.0068,-0.006,-0.0054,-0.0038,-0.0023,-0.0012,-0.0134,-0.0134,-0.0134,0,0,0.0138,0.0135,0.0139,0.0136,0.0123,0.0137,0.0098,0.0097,0.0112,0.0044,0.0048,0.0007,-0.0034,-0.0037,-0.0043,-0.0057,-0.0016,-0.0052,-0.0045,-0.0033,-0.002,-0.0008,0.0003,-0.0132,-0.0133,-0.0133,0,0,0.017,0.0157,0.018,0.0177,0.0172,0.016,0.0167,0.0147,0.014,0.0135,0.0093,0.0074,0.0034,0.002,0.0005,0.0039,0.0019,0.0024,0.0092,0.0106,0.0117,0.0126,0.0162,0.0173,0.0034,0.0035,0.0035,0,0.018,0.0209,0.0185,0.0207,0.0217,0.0179,0.0211,0.02,0.0179,0.0187,0.0148,0.011,0.0066,0.0084,0.0087,0.0059,0.0068,0.0062,0.0119,0.0128,0.0136,0.0169,0.0181,0.0039,0.0039,0.0038,0.0038,0,0.0234,0.0254,0.0268,0.0287,0.0291,0.0311,0.03,0.0304,0.0284,0.0274,0.0276,0.0217,0.0198,0.018,0.0137,0.0177,0.0167,0.0124,0.0102,0.0155,0.0186,0.0197,0.0046,0.0044,0.0043,0.0042,0,0,0.0269,0.0303,0.0308,0.0336,0.0339,0.0353,0.038,0.0404,0.0435,0.0396,0.044,0.038,0.0343,0.0323,0.0275,0.0281,0.0336,0.0231,0.0229,0.0278,0.0391,0.0354,0.0361,0.0303,0.0305,0.0306,0.0398,0,0.0323,0.0393,0.0391,0.0454,0.049,0.0472,0.0506,0.0516,0.0509,0.0538,0.0492,0.0499,0.0401,0.0397,0.0385,0.0346,0.0364,0.0316,0.0321,0.0323,0.0293,0.0372,0.0346,0.0422,0.0408,0.041,0.0411,0,0.0382,0.0424,0.05,0.0556,0.057,0.0596,0.0648,0.0675,0.0696,0.0692,0.0684,0.0644,0.0645,0.0551,0.053,0.0504,0.0458,0.0425,0.0427,0.0368,0.0305,0.0362,0.0442,0.0255,0.0427,0.0426,0.0425,0,0.0435,0.0502,0.0571,0.0586,0.0637,0.0669,0.0696,0.0722,0.0767,0.08,0.0836,0.0806,0.082,0.0748,0.0658,0.0601,0.0652,0.0562,0.0498,0.0496,0.0463,0.0454,0.0372,0.0567,0.0567,0.0567,0.0567,0,0.0502,0.0555,0.06,0.0636,0.0721,0.0729,0.0813,0.0836,0.0888,0.0974,0.0919,0.099,0.0869,0.0868,0.0748,0.0677,0.0724,0.0541,0.0524,0.0494,0.0488,0.031,0.0199,0.057,0.0569,0.0569,0.0568,0,0.0552,0.0581,0.0663,0.0727,0.0749,0.0809,0.0888,0.095,0.0991,0.1107,0.1132,0.1159,0.1171,0.1059,0.0988,0.082,0.0633,0.0703,0.0688,0.0665,0.0365,0.0261,0.0175,0.0099,0.063,0.063,0.063,0,0.0588,0.0634,0.0725,0.0773,0.0803,0.0884,0.0943,0.0997,0.1075,0.1224,0.13,0.1361,0.145,0.1334,0.1078,0.0908,0.0703,0.0707,0.0564,0.0374,0.0246,0.0158,0.0094,0.0574,0.0573,0.0573,0.0572,0,0.0652,0.0678,0.0741,0.0843,0.0912,0.1006,0.1101,0.1183,0.1283,0.1415,0.161,0.1711,0.1617,0.1455,0.1183,0.1009,0.0541,0.0686,0.0497,0.021,0.0105,0.0016,0.0498,0.0567,0.0568,0.0568,0.0569,0.0569,0.0688,0.0742,0.0818,0.0914,0.1003,0.1127,0.1229,0.1364,0.1545,0.1802,0.1859,0.2094,0.1752,0.1398,0.1128,0.0535,0.0544,0.0316,0.0219,0.0158,0.0033,0.051,0.0537,0.0537,0.0537,0.0537,0.0538,0,0.0729,0.0788,0.0881,0.1003,0.1114,0.1154,0.1333,0.1473,0.1727,0.2029,0.2248,0.2228,0.1812,0.1327,0.0522,0.0127,-0.0027,-0.0092,-0.0234,-0.0268,0.0173,0.0112,0.0038,0.0038,0.0038,0.0038,0.0039,0.0039,0.075,0.0834,0.0884,0.1066,0.1164,0.1333,0.1452,0.1697,0.1949,0.2336,0.2533,0.2652,0.2182,0.0784,-0.0122,-0.0309,-0.0598,-0.0657,-0.0763,-0.05,-0.0471,-0.0442,-0.0526,-0.0733,-0.0734,-0.1175,-0.118,-0.1183]}],[{"header":{"parameterUnit":"m.s-1","parameterCategory":2,"la1":30.2991,"la2":30.254,"lo1":-89.0895,"lo2":-89.0444,"dy":0.0017,"dx":0.0017,"nx":28,"ny":28,"refTime":"2025-03-07T09:00:00:Z","depth":"2","parameterNumber":2,"parameterNumberName":"U-component_of_CURRENTS"},"data":[0,0,0,0,0,0,0,0,0,0,0,0,0,0,0,0,0,0,0,0,0,0,0,0,0,0,0,0,0,0,0,0,0,0,0,0,0,0,0,0,0,0,0,0,0,0,0,0,0,0,0,0,0,0,0,0,0,0,0.2582,0.2582,0,0.2601,0.2601,0.2601,0.2598,0.2598,0.2598,0.2597,0.2614,0.2614,0.2615,0,0,0,0,0,0,0,0,0,0,0,0,0,0.2552,0.2552,0.2582,0.2582,0.2582,0.2601,0.2601,0.2601,0.2598,0.2598,0.2598,0.2597,0.2613,0.2614,0.2615,0,0,0,0,0,0,0,0,0,0,0,0,0,0.2565,0.2552,0.2581,0.2585,0.2585,0.2601,0.2601,0.2601,0.2598,0.2598,0.2598,0.2597,0.2613,0.2614,0.2615,0.2623,0,0,0.2617,0.2618,0,0,0,0,0,0,0,0,0.2564,0.2566,0.2584,0.2585,0.2585,0.2599,0.2597,0.2609,0.2598,0.2591,0.2597,0.2597,0.261,0.2611,0.2612,0.2624,0.2625,0.2617,0.2618,0.2618,0.2618,0,0,0,0,0,0,0,0.2563,0.2565,0.2587,0.2584,0.2585,0.2589,0.259,0.2599,0.2599,0.2591,0.2592,0.2598,0.261,0.2611,0.2612,0.2625,0.2617,0.2618,0.2619,0.2619,0.27,0.2702,0,0,0,0,0,0,0.2565,0.2564,0.2586,0.2588,0.2577,0.259,0.2591,0.2593,0.2599,0.2601,0.2598,0.2597,0.261,0.2611,0.2613,0.2677,0.2618,0.2619,0.2619,0.2699,0.2701,0.2703,0,0,0,0,0,0,0.2565,0.2567,0.2586,0.2578,0.2581,0.2591,0.2592,0.2593,0.2608,0.2605,0.2606,0.2613,0.261,0.2612,0.2637,0.2675,0.2619,0.262,0.2697,0.2699,0.2702,0.277,0,0,0,0,0,0,0.2563,0.2566,0.2573,0.2578,0.2582,0.2607,0.2593,0.2594,0.2612,0.2612,0.2618,0.2618,0.261,0.2636,0.2638,0.2675,0.2621,0.2695,0.2698,0.2701,0.2766,0.2775,0.2782,0,0,0,0,0,0.2562,0.2571,0.2573,0.2576,0.2589,0.2608,0.261,0.2614,0.2613,0.2625,0.2631,0.2619,0.2657,0.2638,0.264,0.2678,0.2693,0.2697,0.2701,0.2762,0.2773,0.2782,0,0,0,0,0,0,0.256,0.2572,0.2574,0.2585,0.2602,0.2608,0.2622,0.2625,0.2639,0.2643,0.2635,0.2637,0.2676,0.2667,0.2646,0.2712,0.2676,0.268,0.2722,0.2732,0.274,0.2763,0.2621,0,0,0,0,0,0.2563,0.2574,0.2587,0.2599,0.2609,0.2619,0.2629,0.2635,0.2647,0.2653,0.2658,0.2669,0.2692,0.2703,0.2715,0.2747,0.2769,0.2775,0.2783,0.279,0.2811,0.2883,0.29,0.2715,0.2715,0.2715,0,0,0.2564,0.2575,0.258,0.26,0.2612,0.2636,0.2625,0.2649,0.2678,0.2653,0.2693,0.2698,0.2707,0.2746,0.2763,0.2744,0.2853,0.2795,0.2801,0.2819,0.2889,0.2907,0.2923,0.2718,0.2717,0.2717,0,0,0.2577,0.2585,0.2601,0.2621,0.2648,0.2657,0.2669,0.2688,0.2707,0.2739,0.274,0.2775,0.2788,0.2817,0.283,0.2893,0.2895,0.2891,0.2953,0.3022,0.3038,0.3052,0.3099,0.3117,0.2895,0.2895,0.2895,0,0.2582,0.2596,0.261,0.2636,0.2654,0.2671,0.2696,0.2725,0.2751,0.2776,0.276,0.2817,0.283,0.2895,0.2925,0.2916,0.2944,0.2912,0.3034,0.3049,0.3063,0.3107,0.3126,0.2899,0.2898,0.2898,0.2897,0,0.2601,0.2623,0.2638,0.2674,0.2699,0.2724,0.2764,0.2799,0.2817,0.2839,0.2901,0.2918,0.2952,0.2968,0.297,0.3074,0.3059,0.3036,0.301,0.3086,0.3127,0.3145,0.2904,0.2903,0.2902,0.2901,0,0,0.2593,0.2639,0.2648,0.2667,0.2719,0.2739,0.2806,0.286,0.2907,0.2939,0.3,0.3055,0.3062,0.308,0.3089,0.3159,0.3286,0.3149,0.3151,0.3198,0.3433,0.3345,0.3356,0.3286,0.329,0.3293,0.3421,0,0.2604,0.2647,0.2671,0.272,0.2744,0.2789,0.2849,0.2909,0.2953,0.3021,0.3068,0.3127,0.3104,0.3135,0.3201,0.3275,0.334,0.3253,0.3351,0.3354,0.3269,0.3377,0.3079,0.3162,0.3439,0.3442,0.3444,0,0.2612,0.2643,0.2681,0.2744,0.276,0.2796,0.2885,0.2945,0.3053,0.3093,0.3155,0.3187,0.3304,0.3269,0.3424,0.3369,0.3415,0.3458,0.3463,0.3374,0.3302,0.3133,0.3186,0.3475,0.3473,0.3471,0.3469,0,0.2586,0.2648,0.2672,0.2693,0.2771,0.2808,0.2863,0.2965,0.3037,0.3155,0.3217,0.3308,0.3395,0.3463,0.3557,0.3504,0.3727,0.3652,0.3607,0.36,0.3363,0.3329,0.3765,0.3765,0.3765,0.3764,0.3764,0,0.2577,0.2605,0.2662,0.268,0.2732,0.2801,0.2882,0.2951,0.3082,0.3171,0.3255,0.3338,0.3459,0.3581,0.3615,0.3689,0.3771,0.3653,0.3644,0.3376,0.3343,0.3619,0.36,0.3769,0.3768,0.3767,0.3766,0,0.2541,0.2578,0.261,0.2685,0.2715,0.2757,0.2892,0.2952,0.309,0.3216,0.3268,0.343,0.3567,0.3669,0.382,0.3778,0.3847,0.3846,0.3519,0.3469,0.3646,0.3629,0.3784,0.3782,0.3781,0.378,0.3779,0,0.2518,0.253,0.2593,0.2615,0.2647,0.2732,0.279,0.2936,0.3005,0.3248,0.3293,0.3497,0.3571,0.3758,0.3755,0.3801,0.3869,0.3537,0.3371,0.3681,0.3657,0.3643,0.3628,0.3083,0.3076,0.3071,0.3066,0,0.2475,0.2494,0.2514,0.2562,0.2607,0.2671,0.2765,0.282,0.3,0.3094,0.3245,0.3345,0.3536,0.3446,0.3532,0.3504,0.3495,0.3425,0.3878,0.3118,0.3028,0.3002,0.3009,0.3018,0.3023,0.3027,0.3029,0.3031,0.2433,0.2426,0.2452,0.2488,0.2547,0.2586,0.259,0.2689,0.2766,0.2874,0.3066,0.3116,0.3207,0.3156,0.309,0.3042,0.326,0.3088,0.3101,0.3121,0.3011,0.2923,0.2873,0.2876,0.288,0.2883,0.2885,0,0.238,0.2379,0.2387,0.2416,0.2423,0.2503,0.2549,0.2501,0.2508,0.2651,0.2743,0.2574,0.2545,0.2644,0.249,0.2493,0.2435,0.2386,0.2272,0.2324,0.2369,0.2216,0.1869,0.1866,0.1863,0.186,0,0,0.2345,0.2328,0.2313,0.228,0.2307,0.2276,0.2261,0.2197,0.2227,0.2175,0.2198,0.2438,0.2566,0.2182,0.2137,0.1971,0.2124,0.1894,0.2715,0.2634,0.2674,0.2792,0.2618,0,0,0,0,0]},{"header":{"parameterUnit":"m.s-1","parameterCategory":2,"la1":30.2991,"la2":30.254,"lo1":-89.0895,"lo2":-89.0444,"dy":0.0017,"dx":0.0017,"nx":28,"ny":28,"refTime":"2025-03-07T09:00:00:Z","depth":"2","parameterNumber":3,"parameterNumberName":"V-component_of_CURRENTS"},"data":[0,0,0,0,0,0,0,0,0,0,0,0,0,0,0,0,0,0,0,0,0,0,0,0,0,0,0,0,0,0,0,0,0,0,0,0,0,0,0,0,0,0,0,0,0,0,0,0,0,0,0,0,0,0,0,0,0,0,0.0111,0.0111,0,0.0065,0.0064,0.0064,0.0027,0.0027,0.0026,0.0026,-0.0031,-0.0032,-0.0033,0,0,0,0,0,0,0,0,0,0,0,0,0,0.0128,0.0128,0.0111,0.0111,0.011,0.0065,0.0064,0.0063,0.0027,0.0027,0.0026,0.0026,-0.003,-0.0032,-0.0033,0,0,0,0,0,0,0,0,0,0,0,0,0,0.0104,0.0128,0.0111,0.0088,0.0085,0.0065,0.0064,0.0063,0.0027,0.0027,0.0026,0.0026,-0.003,-0.0032,-0.0034,-0.0039,0,0,-0.004,-0.004,0,0,0,0,0,0,0,0,0.0105,0.0103,0.0091,0.0089,0.0086,0.0053,0.0049,0.0029,0.0027,0.0047,0.0026,0.0026,-0.0003,-0.0007,-0.0017,-0.0041,-0.0044,-0.004,-0.0041,-0.0042,-0.0042,0,0,0,0,0,0,0,0.0107,0.0105,0.0091,0.0091,0.0088,0.0066,0.0062,0.0045,0.0024,0.0046,0.0043,0.0041,-0.0004,-0.0015,-0.0018,-0.0045,-0.004,-0.0041,-0.0043,-0.0043,-0.0069,-0.0069,0,0,0,0,0,0,0.0118,0.0106,0.0093,0.009,0.0097,0.0066,0.0062,0.0063,0.0024,0.0018,0.0041,0.0039,-0.0011,-0.0016,-0.002,-0.0012,-0.0042,-0.0044,-0.0045,-0.007,-0.0069,-0.0069,0,0,0,0,0,0,0.0119,0.0118,0.0095,0.0098,0.0094,0.0067,0.0067,0.0062,0.0054,0.0021,0.0014,0.0039,-0.0012,-0.0018,-0.003,-0.0015,-0.0044,-0.0046,-0.007,-0.007,-0.0069,-0.0007,0,0,0,0,0,0,0.012,0.0118,0.012,0.0099,0.0094,0.0093,0.0068,0.0061,0.0054,0.0051,0.0017,0.0011,-0.0012,-0.0027,-0.0032,-0.0019,-0.0048,-0.0071,-0.007,-0.0069,-0.0009,-0.0004,0.0001,0,0,0,0,0,0.012,0.013,0.012,0.0118,0.0098,0.0094,0.0089,0.0067,0.0054,0.0057,0.0033,0.0013,-0.0025,-0.0028,-0.0034,-0.0021,-0.0071,-0.007,-0.0069,-0.0012,-0.0005,0.0001,0,0,0,0,0,0,0.0134,0.0126,0.0116,0.012,0.0111,0.0088,0.0087,0.0073,0.0055,0.005,0.0018,0.001,0.0003,-0.0017,-0.002,-0.0026,-0.0051,-0.0051,-0.0005,0.0001,0.0006,0.0026,-0.0049,0,0,0,0,0,0.014,0.0145,0.0132,0.0135,0.0133,0.011,0.0104,0.0092,0.0075,0.0066,0.0044,0.002,0.0003,-0.0004,-0.0025,-0.0026,-0.0048,-0.0022,-0.0017,-0.0012,-0.0001,-0.0023,-0.0019,-0.0065,-0.0065,-0.0065,0,0,0.0145,0.0141,0.0143,0.0139,0.0127,0.0136,0.0106,0.0103,0.0113,0.0063,0.0066,0.0034,0.0005,0.0001,-0.0003,-0.0013,-0.0011,-0.0011,-0.0007,0.0002,-0.0022,-0.0017,-0.0013,-0.0064,-0.0065,-0.0065,0,0,0.0168,0.0157,0.0173,0.0171,0.0163,0.0154,0.0158,0.0141,0.0135,0.0131,0.0098,0.0079,0.0053,0.0038,0.0026,0.0047,0.0013,0.0038,0.0085,0.0063,0.0067,0.007,0.0048,0.0049,0.0045,0.0046,0.0046,0,0.0175,0.0194,0.0176,0.0192,0.0199,0.0168,0.0192,0.0182,0.0163,0.0166,0.014,0.0103,0.0073,0.0075,0.008,0.006,0.004,0.0065,0.007,0.0073,0.0075,0.0052,0.0052,0.0049,0.0048,0.0048,0.0048,0,0.0213,0.0226,0.0236,0.0249,0.0253,0.0267,0.0258,0.026,0.0245,0.0231,0.0223,0.0176,0.0157,0.0142,0.0116,0.0122,0.01,0.0076,0.0058,0.0084,0.0058,0.0056,0.0053,0.0052,0.0051,0.005,0,0,0.0236,0.0261,0.0264,0.0288,0.0289,0.0302,0.032,0.0333,0.0356,0.0316,0.0339,0.0289,0.0255,0.024,0.0201,0.0181,0.0171,0.0141,0.0138,0.0125,0.0123,0.0093,0.0088,0.0146,0.0146,0.0146,0.0099,0,0.0275,0.0327,0.0325,0.0375,0.0405,0.0392,0.0418,0.0421,0.0413,0.0424,0.0371,0.0367,0.0296,0.029,0.0256,0.02,0.0171,0.0186,0.0095,0.0093,0.0067,0.0087,0.0111,0.0069,0.0098,0.0097,0.0097,0,0.0316,0.0351,0.041,0.0459,0.0471,0.0492,0.0536,0.0559,0.0558,0.0551,0.0524,0.0476,0.0442,0.0376,0.0283,0.0296,0.0215,0.016,0.0156,0.0108,0.0061,0.0047,0.0066,0.0095,0.0095,0.0095,0.0095,0,0.0358,0.0411,0.0467,0.048,0.0525,0.0553,0.058,0.0595,0.0645,0.0635,0.0662,0.0584,0.0574,0.0459,0.033,0.0309,0.0228,0.0182,0.0075,0.0071,0.0064,0.006,0.0109,0.0109,0.0109,0.011,0.011,0,0.0406,0.045,0.0492,0.0524,0.0603,0.061,0.0694,0.0705,0.0751,0.0834,0.0734,0.0774,0.0596,0.0522,0.0376,0.0232,0.0257,0.0091,0.0061,0.0086,0.0084,0.0083,0.0081,0.0108,0.0108,0.0108,0.0109,0,0.0444,0.0467,0.0541,0.0601,0.0625,0.0686,0.0788,0.086,0.0878,0.0986,0.0993,0.0931,0.0829,0.0641,0.0467,0.0314,0.0164,0.01,0.014,0.0115,0.0006,0.0008,-0.0025,-0.0026,-0.0027,-0.0028,-0.0029,0,0.0468,0.0508,0.0601,0.0661,0.0692,0.0785,0.0867,0.092,0.1022,0.1099,0.1173,0.1087,0.1055,0.0769,0.0482,0.0215,0.0174,0.0051,0.0002,0.0021,-0.0006,-0.0003,0.0,0.0017,0.0016,0.0016,0.0016,0,0.0522,0.0551,0.0618,0.0752,0.0845,0.0961,0.1086,0.1184,0.1281,0.1355,0.1448,0.1415,0.114,0.086,0.047,0.0286,0.0089,0.0034,0.0059,0.0044,0.0055,0.0031,0.0033,0.0013,0.0013,0.0014,0.0014,0.0014,0.0564,0.0626,0.0729,0.0855,0.0976,0.1139,0.1255,0.1399,0.1554,0.1679,0.1641,0.1585,0.1262,0.0752,0.0429,0.0075,0.0083,-0.0052,-0.0048,-0.0045,-0.0035,-0.0027,-0.0082,-0.0083,-0.0083,-0.0083,-0.0083,0,0.0627,0.0706,0.0832,0.0996,0.1152,0.12,0.1412,0.1524,0.1716,0.1786,0.1828,0.1506,0.1182,0.0811,0.0288,-0.0023,-0.0044,-0.0124,-0.0081,-0.0075,-0.0072,-0.0061,-0.0117,-0.0118,-0.0119,-0.0119,0,0,0.0666,0.0793,0.0863,0.1121,0.1246,0.1455,0.158,0.1725,0.1815,0.1862,0.1818,0.1723,0.1279,0.0897,0.0477,0.018,0.0123,0.0119,0.0178,0.0284,0.0292,0.0,0.0025,0,0,0,0,0]}],[{"header":{"parameterUnit":"m.s-1","parameterCategory":2,"la1":30.2991,"la2":30.254,"lo1":-89.0895,"lo2":-89.0444,"dy":0.0017,"dx":0.0017,"nx":28,"ny":28,"refTime":"2025-03-07T09:00:00:Z","depth":"4","parameterNumber":2,"parameterNumberName":"U-component_of_CURRENTS"},"data":[0,0,0,0,0,0,0,0,0,0,0,0,0,0,0,0,0,0,0,0,0,0,0,0,0,0,0,0,0,0,0,0,0,0,0,0,0,0,0,0,0,0,0,0,0,0,0,0,0,0,0,0,0,0,0,0,0,0,0.1641,0.1642,0,0.1697,0.1698,0.1698,0.1747,0.1748,0.1749,0.175,0.1806,0.1807,0.1808,0,0,0,0,0,0,0,0,0,0,0,0,0,0.1558,0.156,0.1641,0.1642,0.1643,0.1697,0.1698,0.1698,0.1747,0.1748,0.1749,0.175,0.1806,0.1807,0.1808,0,0,0,0,0,0,0,0,0,0,0,0,0,0.16,0.156,0.1641,0.1675,0.1679,0.1697,0.1698,0.1699,0.1747,0.1748,0.1749,0.175,0.1805,0.1807,0.1808,0.1792,0,0,0.1811,0.1812,0,0,0,0,0,0,0,0,0.1598,0.1603,0.1669,0.1673,0.1677,0.1719,0.169,0.1731,0.1747,0.1719,0.175,0.1751,0.1778,0.1781,0.1786,0.1794,0.1797,0.1811,0.1812,0.1813,0.1813,0,0,0,0,0,0,0,0.1595,0.1601,0.1661,0.167,0.1675,0.1683,0.169,0.1697,0.1739,0.1721,0.1725,0.1735,0.178,0.1784,0.1787,0.1798,0.1811,0.1812,0.1813,0.1814,0.1907,0.1909,0,0,0,0,0,0,0.1593,0.1598,0.1659,0.1663,0.1642,0.1683,0.1691,0.1702,0.1739,0.1746,0.1734,0.1737,0.1782,0.1786,0.179,0.187,0.1813,0.1814,0.1814,0.1905,0.1908,0.191,0,0,0,0,0,0,0.159,0.1597,0.1657,0.1633,0.1642,0.1684,0.1696,0.1703,0.1746,0.1749,0.1757,0.1775,0.1783,0.1788,0.1834,0.1869,0.1814,0.1815,0.1903,0.1906,0.1909,0.1968,0,0,0,0,0,0,0.1588,0.1596,0.1618,0.1633,0.1643,0.169,0.1695,0.1703,0.1749,0.1755,0.1786,0.179,0.1784,0.1832,0.1835,0.1869,0.1816,0.1901,0.1905,0.1908,0.1964,0.1972,0.198,0,0,0,0,0,0.1585,0.1603,0.1619,0.1627,0.1667,0.1692,0.1698,0.1729,0.175,0.1772,0.18,0.1791,0.1855,0.1834,0.1837,0.1873,0.1899,0.1904,0.1907,0.196,0.197,0.1979,0,0,0,0,0,0,0.1578,0.161,0.1628,0.1656,0.1685,0.1702,0.173,0.175,0.1789,0.1807,0.181,0.1816,0.187,0.1865,0.1841,0.1911,0.1877,0.1882,0.1916,0.1926,0.1934,0.1944,0.1817,0,0,0,0,0,0.1587,0.1613,0.164,0.1667,0.1685,0.1715,0.1737,0.1759,0.1788,0.1808,0.1831,0.1857,0.1881,0.19,0.1916,0.1951,0.1959,0.1978,0.1986,0.1993,0.2005,0.2046,0.2058,0.1923,0.1923,0.1923,0,0,0.1591,0.1615,0.163,0.1669,0.1696,0.1725,0.1732,0.1776,0.1811,0.1806,0.1871,0.1888,0.1898,0.1941,0.1964,0.1946,0.2038,0.1998,0.2004,0.2012,0.2051,0.2065,0.2076,0.1925,0.1925,0.1925,0,0,0.1603,0.1638,0.1662,0.169,0.1739,0.1756,0.1778,0.1818,0.1854,0.1903,0.1917,0.196,0.1991,0.201,0.202,0.2083,0.2079,0.2092,0.2141,0.218,0.2192,0.2202,0.2235,0.2247,0.2095,0.2095,0.2095,0,0.1613,0.1642,0.1674,0.1704,0.1731,0.1775,0.1804,0.1844,0.1898,0.1926,0.1936,0.2008,0.2023,0.2074,0.2105,0.2101,0.2123,0.21,0.2191,0.2201,0.221,0.2241,0.2254,0.2099,0.2098,0.2098,0.2098,0,0.163,0.1669,0.1688,0.174,0.1774,0.1809,0.186,0.1909,0.1955,0.1986,0.206,0.2087,0.2128,0.2144,0.2147,0.2224,0.2218,0.2195,0.2164,0.2227,0.2256,0.2269,0.2103,0.2102,0.2101,0.21,0,0,0.1611,0.1685,0.1697,0.1723,0.1796,0.1818,0.189,0.195,0.2,0.2063,0.2124,0.2183,0.2209,0.2225,0.2241,0.2285,0.2375,0.2281,0.2281,0.231,0.2471,0.2313,0.2311,0.2373,0.2375,0.2377,0.2467,0,0.1619,0.1669,0.1709,0.1765,0.1792,0.1854,0.1907,0.1974,0.204,0.2114,0.2169,0.2237,0.2237,0.2275,0.232,0.2364,0.2411,0.2353,0.2409,0.2411,0.2259,0.232,0.2385,0.2476,0.2479,0.2481,0.2482,0,0.1618,0.1652,0.1703,0.1768,0.1787,0.1834,0.1924,0.1981,0.2091,0.2145,0.2227,0.2279,0.2374,0.2362,0.2468,0.2436,0.2469,0.2493,0.2496,0.2336,0.2275,0.2399,0.2505,0.2503,0.2501,0.25,0.2498,0,0.1568,0.1645,0.1682,0.1708,0.1791,0.1836,0.1893,0.1996,0.2051,0.2191,0.2251,0.2349,0.2424,0.248,0.2547,0.2523,0.2653,0.2612,0.2498,0.2488,0.2577,0.2565,0.2689,0.2689,0.2689,0.2689,0.2688,0,0.154,0.1573,0.167,0.1688,0.1736,0.1815,0.1885,0.1961,0.2079,0.2143,0.2274,0.2344,0.2465,0.2549,0.2581,0.2578,0.2679,0.2521,0.2502,0.26,0.259,0.2586,0.2573,0.2692,0.2691,0.2691,0.269,0,0.1467,0.1537,0.1577,0.1675,0.1714,0.175,0.1871,0.191,0.2053,0.215,0.2206,0.2375,0.2482,0.2575,0.268,0.2608,0.2629,0.2606,0.2726,0.2711,0.2429,0.2419,0.2471,0.2466,0.2462,0.2458,0.2455,0,0.1428,0.1446,0.155,0.157,0.162,0.1696,0.1735,0.1881,0.1932,0.2144,0.2173,0.2352,0.2443,0.2467,0.2573,0.2613,0.2587,0.257,0.2477,0.2431,0.2409,0.2405,0.24,0.2449,0.2448,0.2447,0.2446,0,0.1342,0.1394,0.142,0.1465,0.1517,0.1561,0.1649,0.1682,0.1846,0.1996,0.2094,0.2173,0.2293,0.2372,0.2432,0.2452,0.2556,0.2526,0.2533,0.2447,0.2406,0.2387,0.2386,0.2432,0.2434,0.2435,0.2436,0,0.1272,0.1263,0.1309,0.1336,0.1385,0.1407,0.1478,0.1548,0.1631,0.1871,0.1902,0.2101,0.2265,0.2292,0.2345,0.2355,0.231,0.2213,0.2236,0.2253,0.2139,0.2053,0.1965,0,0,0,0,0,0.1198,0.1174,0.1175,0.1191,0.1228,0.1277,0.1395,0.1476,0.1659,0.1669,0.1782,0.1886,0.1988,0.2098,0.2066,0.2246,0.2314,0.2197,0.2211,0.2353,0.2369,0.2256,0,0,0,0,0,0,0.1139,0.1138,0.113,0.1067,0.1055,0.1096,0.1178,0.131,0.1334,0.1532,0.1606,0.1749,0.1885,0.1983,0.2022,0.2051,0.2015,0.2318,0.2312,0.2344,0.2359,0.2372,0.2261,0,0,0,0,0]},{"header":{"parameterUnit":"m.s-1","parameterCategory":2,"la1":30.2991,"la2":30.254,"lo1":-89.0895,"lo2":-89.0444,"dy":0.0017,"dx":0.0017,"nx":28,"ny":28,"refTime":"2025-03-07T09:00:00:Z","depth":"4","parameterNumber":3,"parameterNumberName":"V-component_of_CURRENTS"},"data":[0,0,0,0,0,0,0,0,0,0,0,0,0,0,0,0,0,0,0,0,0,0,0,0,0,0,0,0,0,0,0,0,0,0,0,0,0,0,0,0,0,0,0,0,0,0,0,0,0,0,0,0,0,0,0,0,0,0,0.0116,0.0116,0,0.0088,0.0088,0.0087,0.0067,0.0066,0.0066,0.0066,0.0032,0.0032,0.0031,0,0,0,0,0,0,0,0,0,0,0,0,0,0.0126,0.0126,0.0116,0.0116,0.0116,0.0088,0.0088,0.0087,0.0067,0.0066,0.0066,0.0066,0.0033,0.0032,0.0031,0,0,0,0,0,0,0,0,0,0,0,0,0,0.0111,0.0126,0.0116,0.0103,0.0101,0.0088,0.0088,0.0087,0.0067,0.0066,0.0066,0.0066,0.0033,0.0032,0.0031,0.0026,0,0,0.0027,0.0026,0,0,0,0,0,0,0,0,0.0112,0.0111,0.0105,0.0104,0.0102,0.0081,0.0078,0.0067,0.0067,0.0079,0.0066,0.0066,0.0049,0.0046,0.004,0.0025,0.0023,0.0027,0.0026,0.0025,0.0025,0,0,0,0,0,0,0,0.0113,0.0112,0.0104,0.0105,0.0103,0.0089,0.0087,0.0076,0.0064,0.0078,0.0077,0.0075,0.0048,0.0041,0.0039,0.0023,0.0027,0.0026,0.0025,0.0024,0.0009,0.001,0,0,0,0,0,0,0.012,0.0113,0.0105,0.0104,0.0108,0.0089,0.0087,0.0088,0.0065,0.0061,0.0075,0.0074,0.0044,0.0041,0.0038,0.0046,0.0025,0.0024,0.0024,0.0009,0.0009,0.001,0,0,0,0,0,0,0.012,0.012,0.0106,0.0108,0.0105,0.0089,0.009,0.0087,0.0084,0.0062,0.0059,0.0075,0.0043,0.004,0.0034,0.0044,0.0024,0.0023,0.0009,0.0009,0.001,0.0052,0,0,0,0,0,0,0.0121,0.012,0.0122,0.0109,0.0106,0.0106,0.009,0.0087,0.0083,0.0082,0.0062,0.0058,0.0043,0.0036,0.0032,0.0042,0.0022,0.0008,0.0009,0.0009,0.005,0.0054,0.0057,0,0,0,0,0,0.0121,0.0128,0.0123,0.0122,0.011,0.0107,0.0104,0.0091,0.0083,0.0086,0.0072,0.0059,0.0037,0.0035,0.0031,0.004,0.0008,0.0009,0.0009,0.0049,0.0053,0.0057,0,0,0,0,0,0,0.0131,0.0126,0.012,0.0124,0.0119,0.0104,0.0104,0.0095,0.0086,0.0084,0.0063,0.0058,0.0056,0.0042,0.004,0.0037,0.002,0.002,0.0052,0.0056,0.0059,0.0074,0.0021,0,0,0,0,0,0.0135,0.014,0.0131,0.0135,0.0133,0.0119,0.0116,0.0109,0.0098,0.0094,0.008,0.0066,0.0055,0.0052,0.0039,0.0039,0.0015,0.0042,0.0045,0.0048,0.0057,0.0026,0.0028,0.0012,0.0012,0.0012,0,0,0.0139,0.0137,0.014,0.0137,0.013,0.0138,0.0117,0.0117,0.0125,0.0092,0.0097,0.0076,0.0057,0.0056,0.0054,0.0047,0.0039,0.0049,0.0052,0.006,0.0027,0.0029,0.003,0.0013,0.0012,0.0012,0,0,0.0154,0.0149,0.0161,0.0161,0.0157,0.0151,0.0154,0.0144,0.0142,0.0142,0.012,0.0108,0.0093,0.0082,0.0074,0.0089,0.0056,0.0084,0.0116,0.0086,0.0087,0.0087,0.0054,0.0051,0.0088,0.0088,0.0088,0,0.0159,0.0174,0.0163,0.0175,0.0182,0.0162,0.018,0.0174,0.0163,0.0167,0.0151,0.0127,0.0107,0.0108,0.0112,0.0098,0.0073,0.0103,0.009,0.0091,0.009,0.0056,0.0053,0.009,0.009,0.009,0.0089,0,0.0185,0.0197,0.0204,0.0216,0.0221,0.0232,0.0228,0.0232,0.0224,0.0216,0.0212,0.0179,0.0168,0.0156,0.0139,0.0134,0.0112,0.0096,0.0081,0.0095,0.0057,0.0053,0.0093,0.0092,0.0092,0.0091,0,0,0.0198,0.022,0.0223,0.0244,0.0247,0.026,0.0275,0.0287,0.0306,0.0277,0.0293,0.0261,0.0238,0.0227,0.0198,0.0171,0.0142,0.0138,0.0135,0.0107,0.007,0.005,0.0042,0.0121,0.012,0.012,0.0042,0,0.0223,0.0263,0.0265,0.0307,0.033,0.0326,0.0347,0.0353,0.035,0.0357,0.0316,0.0314,0.0267,0.0264,0.0227,0.0168,0.0134,0.0165,0.0059,0.0056,0.0038,0.0038,0.0119,0.0039,0.0038,0.0037,0.0036,0,0.0248,0.0277,0.0324,0.037,0.038,0.0402,0.0442,0.0461,0.0458,0.0454,0.0433,0.0395,0.0357,0.0313,0.0211,0.0231,0.0158,0.0102,0.0097,0.0063,0.0028,0.0023,0.0028,0.0029,0.0029,0.003,0.003,0,0.0275,0.032,0.0366,0.0379,0.0421,0.0448,0.0476,0.0491,0.0528,0.0519,0.053,0.0465,0.0446,0.0342,0.0219,0.0215,0.0097,0.0077,-0.0013,-0.0016,0.0007,0.0007,0.0002,0.0003,0.0003,0.0003,0.0003,0,0.0303,0.0341,0.0386,0.0412,0.0482,0.0495,0.0569,0.0579,0.0611,0.0659,0.0586,0.0592,0.0452,0.0364,0.024,0.0099,0.0108,-0.0006,-0.0035,0.0025,0.0029,0.0003,0.0004,-0.0,0.0001,0.0001,0.0002,0,0.0323,0.0347,0.0411,0.0471,0.0497,0.0552,0.0645,0.07,0.0709,0.0766,0.0767,0.0694,0.0573,0.0416,0.0249,0.014,-0.0002,-0.0056,0.002,-0.0004,-0.01,-0.0096,-0.0158,-0.0159,-0.016,-0.0161,-0.0162,0,0.0335,0.0367,0.0459,0.0513,0.0546,0.0634,0.0702,0.0749,0.0809,0.0828,0.0854,0.0756,0.0682,0.0433,0.0255,0.0009,-0.0028,-0.0106,-0.0105,-0.0093,-0.0116,-0.011,-0.0104,-0.0164,-0.0164,-0.0164,-0.0165,0,0.0365,0.0398,0.0456,0.0568,0.0651,0.0756,0.0848,0.0895,0.095,0.0954,0.093,0.0794,0.0656,0.0445,0.0249,0.0073,-0.0058,-0.0119,-0.0117,-0.0117,-0.0101,-0.0121,-0.0114,-0.0169,-0.0168,-0.0168,-0.0167,0,0.0392,0.0441,0.0523,0.0622,0.0733,0.0843,0.0892,0.0957,0.1011,0.1013,0.1002,0.084,0.075,0.0477,0.0298,0.0118,0.0071,0.001,0.0004,0.0006,0.0068,0.0112,0.0088,0,0,0,0,0,0.0419,0.0479,0.0574,0.0692,0.0803,0.0872,0.0978,0.1017,0.1054,0.1049,0.103,0.0896,0.063,0.0513,0.0331,0.0264,0.003,0.0042,-0.0045,-0.019,-0.0186,-0.0144,0,0,0,0,0,0,0.044,0.0526,0.0577,0.0731,0.0818,0.0954,0.1024,0.1053,0.1048,0.1044,0.0907,0.0841,0.0581,0.0735,0.0325,0.0269,0.0186,-0.0081,-0.0086,-0.0193,-0.0189,-0.0185,-0.014,0,0,0,0,0]}]]